Temp
-14 -14 -14 -13 -13 -13 -13 -13 -13 -13 -13 -13 -13 -13 -13 -13 -13 -14 -14 -14 -14 -14 -14 -14 -14 -14 -14 -14 -14 -14 -14 -14 -14 -14 -14 -14 -14 -14 -14 -14 -14 -14
-14 -14 -14 -13 -13 -13 -13 -13 -13 -13 -13 -13 -13 -14 -14 -14 -14 -14 -14 -14 -14 -14 -14 -14 -14 -14 -14 -14 -14 -14 -14 -14 -14 -14 -14 -14 -14 -14 -14 -14 -14 -14
-14 -14 -14 -13 -13 -13 -13 -13 -13 -13 -13 -14 -14 -14 -14 -14 -14 -14 -14 -14 -14 -14 -14 -14 -14 -14 -14 -14 -14 -14 -14 -14 -14 -14 -14 -14 -14 -14 -14 -14 -14 -14
-14 -14 -14 -14 -14 -14 -13 -13 -13 -13 -14 -14 -14 -14 -14 -14 -14 -14 -14 -14 -14 -14 -14 -14 -14 -14 -14 -14 -14 -14 -14 -14 -14 -14 -14 -14 -14 -14 -14 -14 -14 -14
-15 -15 -15 -14 -14 -14 -14 -14 -14 -14 -14 -14 -14 -14 -14 -14 -14 -15 -14 -14 -14 -14 -14 -14 -14 -14 -14 -14 -14 -14 -14 -14 -14 -14 -14 -14 -14 -14 -14 -14 -14 -14
-15 -15 -15 -15 -14 -14 -14 -14 -14 -14 -14 -14 -14 -14 -14 -14 -15 -15 -15 -15 -15 -15 -15 -15 -15 -15 -15 -15 -15 -15 -14 -14 -14 -14 -14 -14 -14 -14 -14 -14 -14 -14
-15 -15 -15 -14 -14 -14 -14 -14 -15 -14 -14 -14 -14 -14 -14 -15 -15 -15 -15 -15 -15 -15 -15 -15 -15 -15 -15 -15 -15 -15 -15 -15 -15 -15 -15 -14 -14 -14 -14 -14 -14 -14
-15 -15 -15 -14 -14 -14 -14 -14 -15 -14 -14 -15 -14 -14 -15 -15 -15 -15 -15 -15 -15 -15 -15 -15 -15 -15 -15 -15 -15 -15 -15 -15 -15 -15 -15 -15 -15 -15 -15 -15 -15 -14
-15 -15 -15 -15 -14 -14 -14 -14 -14 -14 -14 -15 -15 -15 -15 -15 -15 -15 -15 -15 -15 -15 -15 -15 -15 -15 -15 -15 -15 -15 -15 -15 -15 -15 -15 -15 -15 -15 -15 -15 -15 -15
-15 -15 -15 -15 -15 -15 -14 -14 -14 -14 -14 -14 -14 -15 -15 -15 -15 -15 -15 -15 -15 -15 -16 -16 -16 -15 -15 -15 -15 -15 -15 -15 -15 -15 -15 -15 -15 -15 -15 -15 -15 -15
-14 -15 -15 -15 -14 -14 -14 -14 -14 -15 -15 -15 -14 -15 -15 -15 -15 -15 -15 -15 -15 -16 -16 -16 -16 -16 -15 -15 -15 -15 -15 -15 -15 -15 -15 -15 -15 -15 -15 -15 -15 -15
-14 -14 -15 -14 -14 -14 -14 -14 -15 -15 -15 -15 -15 -15 -15 -15 -15 -15 -15 -16 -16 -16 -16 -16 -16 -16 -16 -16 -15 -15 -15 -15 -15 -15 -15 -15 -15 -15 -15 -15 -15 -15
-14 -14 -14 -14 -14 -14 -14 -14 -15 -15 -15 -15 -15 -15 -15 -15 -15 -15 -15 -16 -16 -16 -16 -16 -16 -16 -16 -16 -15 -15 -15 -15 -15 -15 -15 -15 -15 -15 -15 -15 -15 -15
-14 -14 -14 -14 -14 -14 -14 -14 -14 -15 -15 -15 -15 -15 -15 -15 -15 -15 -15 -16 -16 -16 -16 -16 -16 -16 -16 -16 -16 -15 -15 -15 -15 -15 -15 -15 -15 -15 -15 -15 -15 -15
-14 -14 -14 -14 -14 -14 -14 -14 -15 -15 -15 -15 -15 -15 -15 -15 -15 -15 -16 -16 -16 -16 -16 -16 -16 -16 -16 -16 -16 -16 -16 -16 -15 -15 -15 -15 -15 -15 -15 -15 -15 -15
-14 -14 -14 -14 -14 -14 -14 -14 -14 -15 -15 -15 -15 -15 -15 -15 -15 -16 -16 -16 -16 -16 -16 -16 -16 -16 -16 -16 -16 -16 -16 -16 -16 -15 -15 -15 -15 -15 -15 -15 -15 -16
-14 -14 -15 -14 -14 -15 -14 -14 -14 -15 -15 -15 -15 -15 -15 -15 -16 -16 -16 -16 -16 -16 -16 -16 -16 -16 -16 -16 -16 -16 -16 -16 -16 -16 -16 -16 -15 -15 -16 -16 -16 -16
-14 -14 -14 -14 -14 -15 -14 -14 -14 -15 -15 -15 -15 -15 -15 -16 -16 -16 -16 -16 -16 -16 -16 -16 -16 -16 -16 -16 -16 -16 -16 -16 -16 -16 -16 -16 -16 -16 -16 -16 -16 -16
-14 -14 -14 -14 -14 -15 -15 -15 -15 -15 -15 -15 -15 -16 -16 -16 -16 -16 -16 -16 -16 -15 -15 -16 -16 -16 -16 -16 -16 -16 -16 -16 -16 -16 -16 -16 -16 -16 -16 -16 -16 -16
-14 -14 -14 -15 -15 -15 -15 -15 -15 -15 -15 -15 -15 -16 -16 -16 -15 -15 -15 -16 -16 -16 -16 -16 -16 -16 -16 -16 -16 -16 -16 -16 -16 -16 -16 -16 -16 -16 -16 -16 -16 -16
-15 -15 -15 -15 -15 -15 -15 -15 -15 -15 -15 -15 -15 -15 -15 -15 -15 -15 -16 -16 -16 -16 -16 -16 -16 -16 -16 -16 -16 -16 -16 -16 -16 -16 -16 -16 -16 -16 -16 -16 -16 -16
-15 -15 -15 -15 -15 -15 -15 -15 -15 -15 -15 -16 -16 -15 -15 -15 -15 -16 -16 -16 -16 -16 -16 -16 -16 -16 -16 -16 -16 -16 -16 -16 -16 -16 -16 -16 -16 -16 -16 -16 -16 -17
-15 -15 -15 -15 -15 -15 -15 -15 -15 -15 -15 -16 -16 -16 -15 -16 -16 -16 -16 -16 -16 -16 -16 -16 -16 -16 -16 -16 -16 -16 -16 -16 -16 -16 -16 -16 -16 -16 -16 -16 -17 -17
-15 -15 -15 -15 -15 -15 -15 -15 -15 -15 -15 -15 -15 -15 -15 -16 -16 -16 -16 -16 -16 -16 -16 -16 -16 -16 -16 -16 -16 -16 -16 -16 -16 -16 -16 -16 -16 -16 -16 -16 -16 -17
-15 -15 -15 -15 -15 -15 -15 -15 -15 -15 -15 -15 -15 -15 -15 -15 -16 -16 -16 -16 -16 -16 -16 -16 -16 -16 -16 -16 -16 -16 -16 -16 -16 -16 -16 -16 -16 -16 -16 -16 -16 -17
-15 -15 -15 -15 -15 -15 -15 -15 -15 -15 -15 -15 -15 -15 -15 -15 -16 -16 -16 -16 -16 -16 -16 -16 -16 -16 -16 -16 -16 -16 -16 -16 -16 -16 -16 -16 -16 -17 -17 -17 -17 -17
Height
5777 5779 5780 5781 5781 5782 5782 5783 5783 5784 5785 5785 5786 5788 5789 5789 5789 5791 5792 5792 5793 5794 5795 5795 5795 5796 5797 5797 5798 5799 5800 5801 5801 5801 5801 5801 5802 5802 5803 5803 5803 5803
5773 5775 5776 5777 5778 5779 5780 5780 5780 5781 5781 5782 5784 5786 5787 5787 5788 5789 5790 5790 5791 5792 5792 5793 5793 5794 5794 5795 5796 5797 5798 5798 5799 5799 5799 5799 5799 5800 5801 5801 5801 5801
5770 5771 5772 5773 5774 5775 5776 5777 5778 5778 5779 5780 5781 5783 5784 5785 5785 5786 5788 5788 5789 5789 5790 5791 5791 5791 5792 5793 5793 5795 5796 5796 5797 5797 5797 5797 5797 5798 5799 5799 5799 5799
5768 5768 5769 5770 5771 5772 5773 5774 5775 5776 5776 5778 5779 5781 5781 5782 5783 5784 5786 5786 5787 5787 5788 5788 5789 5789 5790 5790 5791 5793 5793 5794 5794 5794 5795 5795 5795 5796 5796 5797 5797 5797
5767 5767 5767 5767 5768 5769 5769 5770 5771 5772 5773 5775 5776 5778 5778 5779 5781 5782 5783 5784 5785 5785 5785 5786 5786 5787 5787 5788 5789 5790 5791 5792 5792 5792 5792 5793 5793 5794 5794 5795 5795 5795
5765 5765 5765 5765 5766 5766 5766 5767 5768 5769 5770 5772 5774 5775 5776 5776 5778 5780 5781 5781 5782 5782 5783 5783 5784 5784 5785 5786 5787 5788 5789 5790 5790 5790 5791 5791 5791 5792 5792 5792 5793 5793
5761 5762 5762 5763 5763 5764 5764 5765 5766 5767 5768 5770 5771 5772 5773 5774 5775 5777 5778 5779 5779 5780 5780 5781 5782 5782 5783 5784 5785 5785 5786 5787 5788 5788 5789 5789 5790 5790 5790 5790 5790 5791
5758 5759 5759 5760 5760 5761 5762 5763 5764 5766 5767 5767 5768 5769 5770 5771 5773 5774 5775 5776 5777 5778 5778 5779 5780 5780 5781 5782 5782 5783 5784 5785 5785 5786 5787 5787 5787 5788 5788 5788 5788 5789
5755 5756 5757 5757 5757 5757 5759 5760 5762 5763 5764 5764 5765 5766 5767 5769 5770 5771 5772 5773 5774 5775 5776 5777 5778 5778 5779 5780 5780 5781 5782 5783 5783 5783 5784 5785 5785 5785 5786 5786 5786 5786
5751 5752 5753 5754 5754 5755 5756 5757 5759 5760 5761 5762 5763 5764 5765 5767 5768 5769 5770 5771 5772 5773 5774 5775 5776 5777 5777 5778 5778 5779 5780 5780 5780 5781 5782 5782 5782 5783 5783 5784 5784 5784
5747 5748 5749 5750 5751 5752 5753 5754 5755 5757 5758 5760 5761 5762 5763 5765 5766 5767 5768 5769 5770 5771 5772 5773 5774 5775 5775 5776 5776 5777 5778 5778 5778 5779 5779 5780 5780 5780 5781 5781 5782 5782
5744 5745 5746 5747 5748 5749 5750 5751 5752 5754 5756 5757 5759 5760 5761 5762 5763 5764 5766 5767 5768 5769 5770 5771 5772 5772 5773 5773 5774 5774 5775 5776 5776 5776 5777 5777 5778 5778 5779 5779 5779 5780
5741 5742 5744 5744 5745 5746 5747 5748 5749 5751 5753 5755 5756 5758 5759 5760 5761 5762 5763 5764 5766 5767 5768 5769 5769 5769 5770 5770 5771 5772 5773 5773 5774 5774 5775 5775 5776 5776 5777 5777 5777 5778
5738 5741 5742 5742 5743 5744 5745 5746 5746 5748 5750 5752 5753 5754 5755 5757 5758 5759 5761 5763 5764 5765 5765 5765 5766 5767 5767 5768 5769 5770 5770 5771 5772 5772 5772 5773 5774 5774 5775 5775 5775 5775
5736 5737 5738 5739 5740 5742 5743 5743 5744 5745 5747 5749 5750 5751 5752 5754 5755 5758 5760 5761 5762 5762 5762 5762 5763 5765 5765 5766 5766 5767 5768 5769 5769 5770 5771 5771 5771 5772 5773 5772 5773 5773
5732 5734 5735 5736 5738 5739 5740 5740 5741 5743 5745 5746 5747 5748 5750 5752 5754 5756 5758 5759 5759 5759 5759 5760 5761 5762 5763 5764 5764 5765 5766 5766 5767 5767 5768 5769 5769 5770 5770 5770 5770 5770
5730 5731 5733 5734 5735 5736 5736 5737 5738 5740 5742 5744 5745 5746 5748 5750 5752 5754 5755 5756 5756 5755 5756 5757 5758 5760 5761 5761 5762 5763 5763 5764 5764 5765 5765 5766 5766 5767 5767 5767 5767 5768
5727 5729 5730 5731 5733 5733 5734 5735 5736 5738 5740 5741 5743 5744 5747 5748 5749 5751 5752 5752 5752 5753 5754 5755 5756 5757 5758 5759 5759 5760 5761 5761 5761 5762 5763 5763 5763 5764 5765 5765 5765 5765
5725 5727 5728 5729 5730 5731 5731 5733 5735 5736 5737 5739 5740 5742 5743 5744 5745 5746 5748 5749 5750 5750 5751 5752 5753 5754 5755 5756 5756 5757 5758 5758 5758 5759 5760 5760 5760 5761 5762 5762 5762 5762
5723 5724 5725 5726 5727 5728 5729 5731 5732 5733 5735 5736 5737 5738 5739 5740 5741 5743 5745 5746 5747 5748 5749 5750 5751 5751 5752 5752 5753 5754 5754 5755 5755 5756 5756 5756 5757 5758 5758 5758 5758 5758
5721 5721 5722 5724 5724 5725 5727 5728 5729 5731 5732 5733 5734 5735 5736 5738 5739 5741 5742 5744 5744 5745 5746 5747 5748 5748 5749 5750 5750 5750 5751 5752 5752 5753 5753 5753 5754 5754 5754 5754 5754 5754
5718 5719 5720 5722 5722 5723 5724 5726 5727 5728 5729 5730 5732 5733 5734 5736 5737 5738 5739 5740 5741 5742 5743 5744 5745 5746 5746 5746 5747 5747 5748 5749 5750 5750 5750 5750 5750 5750 5750 5750 5750 5750
5715 5717 5719 5720 5721 5722 5722 5724 5725 5726 5727 5728 5729 5730 5731 5732 5733 5734 5736 5737 5738 5739 5740 5741 5742 5742 5743 5743 5743 5744 5745 5746 5746 5746 5747 5746 5745 5745 5746 5745 5745 5745
5713 5714 5716 5717 5719 5720 5720 5721 5722 5723 5725 5727 5726 5726 5727 5729 5730 5731 5732 5733 5735 5736 5737 5738 5738 5739 5739 5739 5739 5740 5740 5741 5742 5742 5743 5742 5741 5741 5741 5741 5741 5740
5711 5712 5713 5714 5716 5717 5717 5718 5719 5720 5722 5723 5723 5723 5725 5726 5727 5728 5729 5730 5731 5732 5733 5734 5735 5735 5736 5735 5735 5736 5736 5737 5737 5738 5738 5738 5738 5737 5737 5737 5737 5736
5709 5710 5711 5711 5712 5712 5713 5714 5715 5716 5717 5718 5719 5720 5722 5723 5724 5725 5726 5727 5728 5729 5730 5731 5731 5732 5732 5732 5732 5733 5733 5733 5733 5733 5733 5734 5733 5733 5733 5733 5733 5733
Wind_Speed
17 18 17 17 17 17 18 18 19 21 23 22 21 20 16 15 17 19 20 21 20 19 18 16 16 15 15 16 16 16 15 14 13 11 10 10 10 10 10 10 10 11
18 19 19 19 18 17 17 17 18 19 21 22 22 20 16 15 18 20 21 22 21 20 18 17 17 16 16 16 17 16 16 15 14 12 12 11 11 11 11 11 11 12
19 19 18 19 19 18 17 17 17 17 19 22 23 20 17 16 19 21 22 22 22 21 20 19 18 17 16 17 17 17 17 16 14 13 13 12 12 12 11 11 11 12
18 17 16 17 18 18 18 18 17 16 17 21 23 21 17 17 20 22 23 24 23 22 20 19 19 18 17 17 17 17 17 16 15 14 14 13 13 13 12 12 12 12
15 15 15 15 16 18 19 18 17 17 18 21 23 22 19 19 21 23 25 25 23 21 20 19 18 18 18 18 17 17 17 16 16 15 15 14 13 13 12 12 12 12
14 15 14 14 15 17 18 18 17 17 19 22 23 22 21 20 22 25 27 25 23 21 20 19 18 18 19 18 18 18 18 17 16 16 15 13 13 13 13 12 12 12
17 18 16 15 15 17 18 18 16 17 19 22 24 23 22 22 23 26 27 26 24 22 20 19 19 19 19 19 19 19 18 17 16 15 14 13 13 13 13 13 13 13
20 20 18 16 15 16 18 17 16 16 18 22 24 23 23 23 24 26 27 26 24 22 21 20 19 19 19 19 19 19 18 16 15 14 14 14 14 14 14 14 14 14
22 23 20 17 15 16 18 17 16 15 17 21 24 24 24 24 24 26 26 26 24 22 21 20 19 19 19 19 20 19 17 16 16 15 15 15 16 16 16 15 14 14
21 23 21 18 15 16 17 17 16 16 18 22 24 24 24 23 24 26 26 26 24 22 20 20 20 19 19 19 19 18 17 16 17 17 17 17 17 18 18 17 16 16
20 23 21 19 17 17 17 16 15 17 20 22 22 22 23 24 25 27 26 26 24 22 21 21 20 19 19 19 19 18 17 17 18 18 18 18 19 19 19 19 19 18
20 22 19 18 18 18 17 15 14 17 21 23 23 22 23 25 26 26 26 25 24 22 22 21 19 19 20 20 19 18 17 17 18 18 18 18 18 18 18 19 19 18
19 20 18 16 17 18 18 16 15 18 21 23 23 22 22 23 24 25 24 24 23 21 21 21 20 20 21 21 20 19 18 18 17 18 18 17 17 16 17 17 18 18
18 18 18 17 16 17 18 17 17 19 21 23 23 22 21 21 22 23 23 22 21 20 21 21 21 21 21 21 21 20 20 19 18 17 17 17 17 16 16 17 18 19
19 20 20 19 16 17 18 18 18 20 22 24 23 21 19 19 20 20 20 20 20 20 21 21 22 22 21 21 21 21 20 20 19 18 18 18 19 18 18 19 20 21
20 21 20 19 18 19 20 18 18 22 25 25 23 21 19 19 19 19 19 19 21 21 21 20 21 21 21 21 21 21 21 21 21 21 20 20 21 21 21 22 22 22
20 21 21 20 20 21 21 19 20 24 25 23 21 20 19 20 20 20 21 22 23 23 22 20 20 21 21 22 22 22 22 23 23 23 23 23 23 23 22 22 21 20
20 20 20 20 21 21 20 19 21 24 21 18 18 18 18 20 22 22 24 25 25 25 23 21 20 20 21 22 22 22 23 24 25 25 25 25 25 24 23 21 20 20
19 18 18 19 21 21 19 19 22 22 18 17 17 18 20 23 25 26 26 25 25 24 22 21 20 20 21 22 23 23 24 25 25 25 25 26 26 25 25 24 24 24
19 18 18 19 20 20 19 21 23 21 19 19 20 22 24 27 27 26 24 23 23 23 21 20 20 20 21 22 23 24 25 26 26 26 25 26 26 27 27 27 27 26
18 18 18 18 19 20 21 23 23 21 20 20 22 24 25 26 25 24 23 23 24 23 21 21 21 22 23 23 24 24 24 25 25 26 26 26 27 28 29 29 29 29
15 17 19 19 20 22 24 24 22 21 20 20 22 23 23 24 24 24 24 23 23 23 23 23 24 24 25 25 26 26 25 25 25 27 28 29 30 31 32 32 32 32
14 15 17 20 22 24 25 24 23 22 20 20 21 22 22 23 25 25 24 23 23 23 23 23 24 25 26 27 28 29 29 29 29 29 30 32 34 35 34 35 34 33
15 15 16 18 21 23 23 23 22 22 21 22 24 25 24 23 25 26 25 23 23 23 22 22 23 24 25 27 29 30 31 31 31 32 32 34 35 35 34 34 33 32
16 16 16 18 20 21 23 23 23 23 25 28 30 30 28 25 25 25 24 24 24 24 24 24 24 24 24 25 26 27 28 29 30 30 31 31 32 32 31 29 28 29
16 16 19 22 24 26 27 27 27 28 30 31 31 31 31 29 27 25 24 24 25 26 27 27 26 25 24 23 24 24 25 26 26 27 27 28 28 28 27 25 25 26
Wind_Direction
260 253 247 244 244 244 242 238 234 233 234 237 233 224 228 239 237 232 229 225 223 223 225 227 229 230 227 223 222 223 225 230 234 240 247 253 255 257 257 258 262 265
236 235 235 235 236 239 240 236 234 233 232 230 222 219 231 240 235 231 226 222 223 224 226 230 233 233 230 226 225 226 228 232 236 242 248 251 252 253 253 255 259 262
222 219 224 228 229 232 234 232 232 231 227 222 217 221 235 239 235 231 225 224 225 226 229 233 236 235 231 229 229 230 232 235 240 246 250 250 250 251 252 253 258 261
217 213 219 227 227 226 226 225 226 226 223 218 215 222 234 236 235 232 227 227 228 229 232 235 236 236 233 232 233 235 237 240 244 248 248 247 247 248 249 251 257 263
223 222 226 232 233 228 224 222 220 220 220 215 214 222 233 234 232 230 229 229 230 231 233 234 235 235 233 235 236 238 241 244 246 247 247 246 245 248 250 250 255 260
234 239 243 247 244 236 228 224 221 219 216 213 215 225 234 233 229 229 230 231 232 233 233 234 234 233 233 235 236 239 242 243 244 246 247 247 247 249 250 250 253 254
237 244 250 255 254 243 233 229 226 223 218 214 218 227 233 230 227 228 231 232 234 234 235 235 233 232 233 233 235 238 239 240 242 244 248 252 253 252 250 248 249 251
241 244 248 251 251 241 232 230 231 231 225 217 219 227 229 226 226 228 231 233 235 236 236 235 233 232 232 232 233 236 236 237 240 244 250 254 255 253 251 248 248 249
249 245 245 245 240 228 223 225 228 234 230 219 218 223 225 224 226 228 231 234 235 236 236 235 232 232 232 232 233 234 234 236 241 247 252 254 254 253 252 251 250 250
253 241 240 240 234 222 216 218 223 230 227 219 219 222 222 222 226 229 232 234 236 237 235 233 233 232 231 231 231 233 234 237 243 249 252 253 252 252 253 253 252 253
254 239 238 238 232 222 215 216 221 224 222 220 223 225 220 221 226 230 233 235 236 237 235 235 235 234 231 230 231 234 236 240 245 249 250 250 251 252 253 253 254 256
252 240 239 237 232 225 217 218 222 218 216 221 226 225 221 223 228 231 234 236 238 238 237 237 238 237 233 229 232 236 240 243 246 246 247 247 248 250 251 253 255 257
251 241 240 237 234 228 221 222 223 215 216 226 228 222 221 226 230 233 236 238 239 239 239 238 238 237 234 231 234 239 242 242 241 241 242 244 246 249 252 255 258 259
249 242 241 235 232 232 226 225 224 215 218 226 224 219 222 227 231 233 236 238 239 239 238 237 235 233 232 234 237 240 241 240 238 239 242 246 249 252 255 258 260 260
249 242 237 227 228 234 225 222 222 215 216 221 220 221 226 231 234 235 235 236 240 242 240 236 233 231 232 235 238 239 240 239 240 242 246 250 254 257 259 261 262 262
246 238 229 224 232 235 223 220 220 213 211 215 223 231 235 236 237 234 231 234 239 242 241 237 233 232 234 237 239 240 240 241 243 246 249 252 256 260 262 263 263 264
242 235 232 233 235 229 221 221 215 207 207 215 228 239 240 237 236 229 226 232 237 239 241 240 236 235 237 239 241 241 242 244 246 248 251 254 257 260 263 265 267 269
240 234 236 233 225 220 226 228 212 203 208 222 234 242 241 236 233 228 226 231 235 237 239 241 240 239 239 240 242 243 244 246 249 251 255 257 260 262 264 267 270 273
234 231 231 227 221 222 232 230 213 207 218 230 233 235 236 232 229 228 228 231 235 238 240 241 241 241 240 240 241 243 245 248 252 254 258 260 262 263 263 265 268 271
227 229 229 229 229 229 227 217 211 216 228 233 229 228 229 229 229 230 231 231 235 238 240 241 242 242 243 242 243 244 246 249 252 255 257 259 260 262 262 264 266 269
223 227 230 230 229 225 217 213 216 225 232 234 232 230 231 231 230 232 231 230 232 235 238 241 243 244 245 245 246 246 245 246 250 253 255 258 261 263 264 266 267 268
223 223 226 226 223 218 215 218 226 231 232 235 236 234 234 233 230 231 233 234 235 236 239 243 246 248 251 252 253 253 251 248 249 253 258 264 266 266 267 268 267 266
229 226 225 220 217 218 222 228 235 236 235 238 241 239 236 232 231 233 236 238 240 241 243 247 251 253 255 257 258 259 258 255 253 256 260 264 266 266 268 268 266 263
230 227 228 221 218 224 231 234 235 235 230 225 230 238 240 235 232 232 234 237 241 244 247 251 254 258 259 259 258 258 258 257 257 258 258 259 261 264 266 266 264 261
236 231 232 227 224 229 237 241 237 234 229 224 228 237 242 237 233 231 234 240 243 245 249 252 256 260 261 260 257 255 255 256 257 258 258 258 260 262 264 265 265 262
244 246 244 238 227 219 223 235 239 237 235 233 235 240 242 241 239 238 238 240 242 246 250 253 256 258 258 258 257 255 256 257 258 259 260 261 263 265 268 269 270 267